PICO-01D007

导读 | 星芒AI

PICO-01D007 是一颗小型卫星,属于 PICO 系列,主要用于教育和科研目的。该卫星由学生团队设计与建造,旨在提升航天工程实践能力。其搭载了基础通信模块和实验载荷,支持数据传输与在轨测试。卫星采用标准化结构,便于集成与发射。PICO-01D007 的成功发射为相关机构提供了宝贵的空间实验平台,促进了航天技术的普及与人才培养。

基本信息
目录编号:
58690
目录名称:
PICO-01D007
国际标识:
2023-174DE
轨道中心:
EARTH
卫星名称:
PICO-01D007
卫星全名:
--
卫星状态:
已陨落 最后检测时间 2024-12-31
发射日期:
2023-11-11 UTC
国别 :
意大利 (IT)
星等 :
--
轨道信息
数据来源 国际轨道数据
星历时间: 2024-12-30T11:07:06+0800
轨道信息已过期348天
半长轴: 6559.255km
偏心率: 0.0009473
轨道倾角: 97.399°
近地点辐角 288.937°
升交点赤经 86.099°
平近点角 71.090°
近地点: 174.906km
远地点: 187.334km
周期: 88.113分钟
每日圈数: 16.342595
详细信息
使用方式:
暂无